SCP
0 0 0 0 0 0 0 0 0 0 0 0 0 0 1 0 0 1 1 0 0 0 0 0 0 0 0 0 0 0 0 0 0 0 0 0 0 1
0 0 0 0 0 0 0 0 0 0 0 0 0 0 0 0 0 1 1 0 0 0 0 0 0 0 0 0 0 0 0 0 0 0 0 0 0 0
0 0 0 0 0 0 0 0 0 0 0 0 0 0 0 0 0 0 0 0 0 0 0 0 0 0 0 0 0 0 0 0 0 0 0 0 0 0
0 0 0 0 0 0 0 0 0 0 0 0 0 0 0 0 0 0 0 0 0 0 0 0 0 0 0 0 0 0 0 0 0 0 0 0 0 0
0 0 0 0 0 0 0 0 0 0 0 0 0 0 0 0 0 0 0 0 0 0 0 0 0 0 0 0 0 0 0 0 0 0 0 0 0 0
0 0 0 0 0 0 0 0 0 0 0 0 0 0 0 0 0 0 0 0 0 0 0 0 0 0 0 0 0 0 0 0 0 0 0 0 0 0
0 0 0 0 0 0 0 0 0 0 0 0 0 0 0 1 1 0 0 0 0 0 0 0 0 0 0 0 0 0 0 0 0 0 0 0 0 0
0 0 0 0 0 0 0 0 0 0 0 0 0 0 0 1 1 1 0 0 0 0 0 0 0 0 0 0 0 0 0 0 0 0 0 0 0 0
0 0 0 0 0 0 0 0 0 0 0 0 0 0 0 1 1 1 1 0 0 0 0 0 0 0 0 0 0 0 0 0 0 0 0 0 0 0
0 0 0 0 0 0 0 0 0 0 0 0 0 0 0 1 1 1 1 0 0 0 0 0 0 0 0 0 0 0 0 0 0 0 0 0 0 0
0 0 0 0 0 0 0 0 0 0 0 0 0 0 0 0 1 1 1 1 0 0 0 0 0 0 0 0 0 0 0 0 0 0 0 0 0 0
0 0 0 0 0 0 0 0 0 0 0 0 0 0 0 0 0 1 1 1 0 0 0 0 0 0 0 0 0 0 0 0 0 0 0 0 0 0
0 0 0 0 0 0 0 0 0 0 0 0 0 0 0 0 0 1 1 1 1 0 0 0 0 0 0 0 0 0 0 0 0 0 0 0 0 0
0 0 0 0 0 0 0 0 0 0 0 0 0 1 1 1 1 1 1 1 1 0 0 0 0 0 0 0 0 0 0 0 0 0 0 0 0 0
0 0 0 0 0 0 0 0 0 0 0 0 0 1 1 1 1 1 1 1 1 0 0 0 0 0 0 0 0 0 0 0 0 0 0 0 0 0
0 0 0 0 0 0 0 0 0 0 0 0 0 1 1 1 1 1 1 1 1 1 0 0 0 0 0 0 0 0 0 0 0 0 0 0 0 0
0 0 0 0 0 0 0 0 0 0 0 0 1 1 1 1 1 1 1 1 1 1 0 0 0 0 0 0 0 0 0 0 0 0 0 0 0 0
0 0 0 0 0 0 0 0 0 0 0 0 1 1 1 1 1 1 1 1 1 1 1 0 0 0 0 0 0 0 0 0 0 0 0 0 0 0
0 0 0 0 0 0 0 0 0 0 0 0 0 0 0 1 1 1 1 1 1 1 1 0 0 0 0 0 0 0 0 0 0 0 0 0 0 0
0 0 0 0 0 0 0 0 0 0 0 0 0 0 0 1 1 1 1 1 1 1 1 0 0 0 0 0 0 0 0 0 0 0 0 0 0 0
0 0 0 0 0 0 0 0 0 0 0 0 0 0 0 0 1 1 1 1 0 0 0 0 0 0 0 0 0 0 0 0 0 0 0 0 0 0
0 0 0 0 0 0 0 0 0 0 0 0 0 0 0 0 1 1 1 0 0 0 0 0 0 0 0 0 0 0 0 0 0 0 0 0 0 0
0 0 0 0 0 0 0 0 0 0 0 0 0 0 0 0 0 0 0 0 0 0 0 0 0 0 0 0 0 0 0 0 0 0 0 0 0 0
Wind_Speed
4 4 3 3 3 3 3 3 3 3 3 3 2 1 1 3 6 7 7 12 15 16 16 16 17 17 17 17 17 16 16 16 16 16 16 16 16 16
4 4 4 3 3 3 3 4 4 4 4 2 2 2 2 1 2 5 6 10 13 14 15 15 15 16 16 16 16 15 15 15 14 14 14 14 14 14
5 5 6 5 3 3 3 3 3 3 5 3 2 2 2 0 1 1 2 3 5 11 13 13 13 14 14 15 14 14 14 14 13 13 13 13 12 12
7 6 7 5 5 4 3 4 4 4 4 5 2 2 1 1 1 2 2 3 3 6 10 11 11 12 12 13 13 13 13 13 12 12 12 12 12 11
8 8 8 6 6 4 4 5 4 4 4 4 3 1 1 1 2 2 3 3 4 5 7 8 9 10 11 11 12 12 12 12 12 12 12 11 11 11
8 8 8 8 8 7 5 6 5 5 4 4 3 2 2 1 3 3 3 2 3 4 5 5 7 8 9 10 11 11 11 11 11 11 11 10 10 10
8 8 9 10 12 9 6 6 5 5 4 4 4 2 2 2 3 3 4 4 3 2 4 3 4 5 5 7 9 10 11 11 11 11 11 10 10 10
9 9 9 11 13 13 13 12 10 7 7 5 4 4 4 3 3 4 5 5 4 3 4 3 3 4 3 3 7 10 11 11 11 11 11 11 11 11
10 9 8 8 10 9 10 12 12 13 12 8 7 6 5 4 4 6 6 5 4 5 4 3 3 3 3 4 8 10 11 12 12 12 13 12 12 12
11 11 10 10 9 9 9 9 9 9 10 9 8 8 6 5 5 5 5 5 4 4 4 4 2 3 3 4 6 9 11 12 13 13 14 14 13 13
10 10 11 11 12 13 11 10 10 9 10 12 11 10 9 8 6 4 6 7 5 3 2 4 4 3 3 3 5 9 10 12 13 14 15 15 15 13
8 9 13 13 13 13 11 10 11 10 8 8 9 10 9 8 10 8 7 7 5 4 4 5 5 5 4 2 3 4 7 10 12 13 15 15 14 9
7 7 7 11 14 14 13 11 12 10 8 8 7 7 6 6 7 7 7 7 7 4 7 6 6 4 5 4 2 2 3 4 5 7 10 11 9 8
8 7 7 10 12 12 11 11 13 11 7 7 7 7 7 7 6 7 8 7 5 6 9 8 6 6 7 5 4 3 3 3 5 6 6 9 9 10
7 10 10 11 10 9 11 13 11 9 8 8 8 8 7 7 6 5 7 6 6 7 9 5 7 8 6 6 7 6 4 3 4 6 6 6 5 5
5 7 8 8 6 6 6 7 8 7 8 8 8 7 6 6 7 6 6 6 5 5 6 6 7 10 6 6 8 7 6 7 7 6 6 5 4 4
3 3 3 3 3 3 4 5 6 7 8 7 7 7 7 7 6 6 6 6 6 7 6 5 4 4 5 7 7 8 9 7 8 8 7 5 4 5
3 3 4 4 4 4 4 5 6 7 7 7 7 7 7 7 7 6 6 7 7 7 7 7 7 5 4 3 3 9 8 7 8 9 7 6 6 5
4 5 5 5 4 4 4 5 5 6 7 7 7 7 7 7 7 7 7 7 7 8 8 9 8 8 8 7 4 5 9 9 10 9 7 5 6 7
5 6 6 5 5 4 4 5 5 5 5 6 6 6 6 6 7 8 8 9 8 8 8 9 9 9 8 8 7 6 10 12 10 10 8 5 5 6
6 6 6 6 5 5 5 5 5 5 6 6 6 6 6 6 7 7 8 10 9 9 10 10 8 8 6 7 7 5 7 9 8 9 10 8 6 6
7 7 6 6 6 5 5 5 5 5 6 6 6 6 5 6 7 8 8 9 8 8 9 8 10 9 6 7 8 8 9 8 7 8 9 6 7 10
7 7 7 6 6 6 6 6 7 6 6 7 7 7 7 7 6 6 7 7 8 9 9 9 9 7 6 6 7 8 12 12 9 8 7 2 3 6
Wind_Direction
278 276 267 266 267 260 259 260 267 281 285 286 301 304 256 224 213 207 208 207 204 202 201 200 198 195 193 194 196 199 201 203 205 206 209 212 214 217
270 274 273 267 270 266 259 257 251 256 270 287 298 312 308 282 203 204 204 198 197 192 191 192 191 190 189 190 193 195 197 199 200 201 203 205 208 212
273 271 274 273 267 265 260 254 251 249 264 283 276 298 307 41 94 141 148 161 176 183 183 182 182 182 184 186 187 190 192 194 195 196 198 200 204 209
264 265 269 273 267 260 255 253 251 244 252 274 283 294 315 145 128 120 105 110 122 156 165 167 171 174 177 181 183 185 188 190 191 193 195 197 200 204
255 254 259 261 264 258 251 253 253 251 241 257 275 279 282 150 129 114 106 101 101 123 134 147 159 165 170 175 179 181 184 186 188 191 192 191 192 193
252 247 248 247 251 254 251 248 248 249 245 248 257 257 251 177 149 150 142 126 115 105 102 109 130 141 154 164 171 175 178 180 182 184 184 182 181 180
257 247 243 245 246 243 239 236 233 236 237 239 243 239 234 195 183 160 157 139 110 123 123 114 117 119 130 148 158 162 165 167 169 170 167 164 162 158
265 257 249 254 256 254 252 244 228 226 228 228 231 229 230 217 189 167 156 159 158 155 132 106 101 104 97 117 139 147 152 154 154 152 150 148 146 143
261 260 258 252 243 241 248 255 246 235 227 223 230 229 221 215 197 183 176 171 154 151 133 110 93 91 65 84 125 138 143 145 143 141 139 137 136 135
258 255 254 255 247 238 241 246 245 242 235 231 232 234 228 215 207 197 169 140 112 132 129 121 108 88 70 63 95 124 132 134 133 133 131 129 127 125
261 257 253 253 245 234 235 241 245 246 242 234 229 231 226 214 196 178 168 163 154 149 119 123 125 101 72 57 64 94 114 123 127 128 126 124 121 114
264 259 254 251 246 234 232 233 238 239 235 232 226 228 226 217 202 198 186 179 156 152 156 131 137 137 116 70 54 74 88 96 108 119 125 127 128 120
263 262 256 249 246 239 230 230 231 227 225 224 222 218 212 209 205 201 194 188 173 159 162 144 143 141 127 125 93 66 94 114 104 103 111 118 125 132
257 260 259 254 250 245 233 227 224 219 222 218 218 215 209 206 205 198 197 193 176 158 163 155 144 151 138 136 137 116 90 106 119 124 122 112 98 89
252 256 260 260 257 249 235 224 215 213 212 214 216 215 209 203 193 189 190 178 155 151 157 161 148 150 146 142 143 144 138 136 135 135 138 143 142 140
263 267 265 260 249 241 234 221 213 209 209 213 213 210 200 196 192 183 184 174 160 147 147 149 157 154 141 142 148 154 155 152 154 148 139 139 145 154
274 262 251 246 240 234 227 217 207 205 211 214 210 204 199 194 190 184 179 173 173 165 152 132 115 102 112 144 150 156 151 146 155 151 150 150 160 167
248 249 256 249 244 242 235 222 211 208 209 207 203 200 197 192 186 184 183 185 178 171 160 150 141 120 100 52 120 154 154 149 152 156 153 154 164 172
237 247 252 250 247 243 232 223 216 211 203 199 196 195 196 191 184 184 187 188 182 173 165 161 164 160 165 169 168 168 158 151 152 160 167 162 167 167
233 244 249 247 241 240 231 223 216 206 197 194 195 195 193 191 187 185 188 188 181 171 167 170 179 181 184 169 154 169 168 158 159 163 161 143 114 120
237 239 243 244 240 236 229 216 208 202 195 189 194 194 191 193 193 190 187 183 180 175 177 180 176 150 113 114 121 139 165 168 158 159 156 150 146 155
244 241 240 238 235 233 227 214 206 204 201 196 195 196 197 198 195 189 184 179 181 178 174 157 149 151 153 160 156 149 151 157 150 149 160 152 163 175
239 236 236 234 230 225 221 214 209 206 205 201 196 195 195 197 195 188 182 176 171 168 159 153 156 163 165 153 147 147 152 155 155 158 167 155 124 132